TheGetRank SiteMap Page 2905
Home 2855 2856 2857 2858 2859 2860 2861 2862 2863 2864 2865 2866 2867 2868 2869 2870 2871 2872 2873 2874 2875 2876 2877 2878 2879 2880 2881 2882 2883 2884 2885 2886 2887 2888 2889 2890 2891 2892 2893 2894 2895 2896 2897 2898 2899 2900 2901 2902 2903 2904 2905 2906 2907 2908 2909 2910 2911 2912 2913 2914 2915 2916 2917 2918 2919 2920 2921 2922 2923 2924 2925 2926 2927 2928 2929 2930 2931 2932 2933 2934 2935 2936 2937 2938 2939 2940 2941 2942 2943 2944 2945 2946 2947 2948 2949 2950 2951 2952 2953 2954 2955
S.NO. Website Pagerank Alexa Rank Last Updated
2904000 lyricvideo.com 1 11685976 2011-09-29 21:15:06
2904001 whatsyourcalling.org 4 1303376 2011-09-29 21:15:07
2904002 blog.eveningclub.ru 0 1154037 2011-09-29 21:15:12
2904003 essentialsomatics.com 3 13200874 2011-09-29 21:15:13
2904004 nokiawap.in 0 No Rank 2011-09-29 21:15:25
2904005 phoenixenergy.net 3 2170899 2011-09-29 21:15:29
2904006 proknot2go.com 0 No Rank 2011-09-29 21:15:29
2904007 sarusixa.cwahi.net 0 57341 2011-09-29 21:15:34
2904008 farregibof.hotbox.ru 0 49988 2011-09-29 21:15:40
2904009 map.ks-gov.net 4 1032857 2011-09-29 21:15:41
2904010 hoalantieu.com 0 No Rank 2011-09-29 21:15:48
2904011 info.paran.com 3 3943 2011-09-29 21:15:48
2904012 rsjinlihua.com 0 No Rank 2011-09-29 21:15:52
2904013 muzikkeyfi.com 2 493134 2011-09-29 21:16:01
2904014 witchswell.com 1 23480378 2011-09-29 21:16:07
2904015 uktiffanyshop.com 0 No Rank 2011-09-29 21:16:13
2904016 pratocaffe.net 2 No Rank 2011-09-29 21:16:15
2904017 slbilbrey.com 1 14337379 2011-09-29 21:16:17
2904018 jeneteshab.com 0 237492 2011-09-29 21:16:18
2904019 topclass.co.uk 0 25522012 2011-09-29 21:16:24
2904020 emilisrael.com 0 No Rank 2011-09-29 21:16:28
2904021 cellsindex.com 0 15308847 2011-09-29 21:16:33
2904022 camionerosrc.foroactivo.com.es 0 118541 2011-09-29 21:16:36
2904023 sacotic.gkvu.info 0 No Rank 2011-09-29 21:16:37
2904024 commission-central.apple-theme-weddings.andrinda.net 0 2716059 2011-09-29 21:16:42
2904025 soft.jdbbx.com 0 14734 2011-09-29 21:16:42
2904026 tangentone.com 5 3825206 2011-09-29 21:16:48
2904027 coachcheryl.com 0 15454226 2011-09-29 21:16:50
2904028 billsranch.com 3 776709 2011-09-29 21:16:53
2904029 iarchitect.net 0 No Rank 2011-09-29 21:16:55
2904030 pyedpypers.org 3 19356488 2011-09-29 21:17:01
2904031 baysherman.com 1 No Rank 2011-09-29 21:17:06
2904032 stardoll.kindalfire.com 0 No Rank 2011-09-29 21:17:08
2904033 careers.kfc.ca 4 319694 2011-09-29 21:17:12
2904034 nationmusic.ch 4 3808898 2011-09-29 21:17:17
2904035 hollandswimming.com 4 11304320 2011-09-29 21:17:18
2904036 valuetunes.com 1 No Rank 2011-09-29 21:17:19
2904037 bugs.irssi.org 5 331650 2011-09-29 21:17:26
2904038 pilgramdar.org 2 No Rank 2011-09-29 21:17:33
2904039 singlesgalore.co.uk 1 No Rank 2011-09-29 21:17:35
2904040 superjakes.com 2 13023987 2011-09-29 21:17:36
2904041 da.jocogov.org 6 191334 2011-09-29 21:17:40
2904042 photos.trainingwithyo.com 0 No Rank 2011-09-29 21:17:44
2904043 article.gratissexen.sexdating-247.nl 0 No Rank 2011-09-29 21:17:45
2904044 prbulletin.com 0 26451461 2011-09-29 21:17:46
2904045 katewatson.com 1 No Rank 2011-09-29 21:17:47
2904046 smartmark6.com 0 23148947 2011-09-29 21:17:54
2904047 arcadtown.com 0 28636944 2011-09-29 21:18:01
2904048 soundwinds.com 1 No Rank 2011-09-29 21:18:06
2904049 cineraculo.com 1 114202 2011-09-29 21:18:11
2904050 rtppcservices.com 0 No Rank 2011-09-29 21:18:12
2904051 daje-metaal.nl 1 No Rank 2011-09-29 21:18:19
2904052 windypress.com 0 18131081 2011-09-29 21:18:22
2904053 ouluwh.com 0 No Rank 2011-09-29 21:18:24
2904054 nmbch.com 1 No Rank 2011-09-29 21:18:29
2904055 duet-dating.ru 0 No Rank 2011-09-29 21:18:29
2904056 yolandahmckay.sesver.info 0 6804805 2011-09-29 21:18:32
2904057 minnewaska.org 3 22877711 2011-09-29 21:18:33
2904058 likken7416.sexdating2.info 0 No Rank 2011-09-29 21:18:34
2904059 tipsntricks24x7.blogspot.com 0 No Rank 2011-09-29 21:18:37
2904060 djem-toker.com 0 No Rank 2011-09-29 21:18:38
2904061 rachelnewell.com 2 No Rank 2011-09-29 21:18:43
2904062 kailash.com.es 4 No Rank 2011-09-29 21:18:43
2904063 canyons.edu 6 187093 2011-09-29 21:18:43
2904064 colbymeadows616.insanejournal.com 0 5015 2011-09-29 21:18:47
2904065 gaybloggen.com 4 1002034 2011-09-29 21:18:48
2904066 centerforindigoliving.com 0 No Rank 2011-09-29 21:18:52
2904067 howa.lib.md.us 6 90183 2011-09-29 21:18:54
2904068 king-brand.com 3 4948485 2011-09-29 21:19:02
2904069 luminultra.com 4 16411184 2011-09-29 21:19:10
2904070 sexen886.sexdating2.info 0 No Rank 2011-09-29 21:19:15
2904071 bdstamps.com 3 23125775 2011-09-29 21:19:16
2904072 wiki.onsip.com 2 165928 2011-09-29 21:19:23
2904073 jacobrosa14.imagekind.com 0 16983 2011-09-29 21:19:25
2904074 sacotic.kok00.com 0 No Rank 2011-09-29 21:19:25
2904075 elkomey-ramadan.gid3an.com 1 38466 2011-09-29 21:19:33
2904076 eleniadesign.com 0 No Rank 2011-09-29 21:19:34
2904077 babyfamilyandhome.com 0 No Rank 2011-09-29 21:19:34
2904078 bacioclub.com 3 16148425 2011-09-29 21:19:42
2904079 backdoorvac.com 3 10355443 2011-09-29 21:19:52
2904080 joel9535.elite-weight-loss-package.com 0 461188 2011-09-29 21:19:54
2904081 backcheckers.com 0 No Rank 2011-09-29 21:19:55
2904082 babystuffedanimal.com 0 No Rank 2011-09-29 21:20:00
2904083 backdrafthorses.weebly.com 0 No Rank 2011-09-29 21:20:01
2904084 hlacreative.com 2 22513457 2011-09-29 21:20:01
2904085 backgroundcheck.blog.com 0 1088 2011-09-29 21:20:06
2904086 backgammonsets.org.uk 1 No Rank 2011-09-29 21:20:13
2904087 backdrops.myfirstblog.net 0 696355 2011-09-29 21:20:16
2904088 brookphysio.co.uk 0 No Rank 2011-09-29 21:20:21
2904089 relaties1786.sexdating2.info 0 No Rank 2011-09-29 21:20:23
2904090 iwaskicontemporaryart.com 3 No Rank 2011-09-29 21:20:26
2904091 backgroundchecksgov.org 0 12368113 2011-09-29 21:20:27
2904092 omanaids.org 1 No Rank 2011-09-29 21:20:28
2904093 slimlehart.com 2 3185782 2011-09-29 21:20:30
2904094 brooklynyesdeli.com 1 No Rank 2011-09-29 21:20:31
2904095 brookscleaningllc.com 1 No Rank 2011-09-29 21:20:35
2904096 brooksidecountrymeats.webs.com 0 No Rank 2011-09-29 21:20:41
2904097 maxeddreview.com 0 No Rank 2011-09-29 21:20:46
2904098 brooksidecountrymeats.co.uk 0 No Rank 2011-09-29 21:20:50
2904099 naturalhorsetreats.com 1 No Rank 2011-09-29 21:20:54
2904100 mrvc.seonesa.wordpress.com 0 No Rank 2011-09-29 21:20:55
2904101 brookslyn.com 3 9334475 2011-09-29 21:20:55
2904102 brooksidehssoccer.com 0 No Rank 2011-09-29 21:20:59
2904103 brosdaandbentley.com 2 2642352 2011-09-29 21:21:03
2904104 freemoney.ewk.hu 1 227360 2011-09-29 21:21:10
2904105 broomfieldoptometrist.com 1 No Rank 2011-09-29 21:21:16
2904106 brosis.com.np 0 No Rank 2011-09-29 21:21:16
2904107 brosinthemist.blog.com 0 1088 2011-09-29 21:21:23
2904108 creamycravings.blogspot.com 0 No Rank 2011-09-29 21:21:29
2904109 baplaw.com 2 No Rank 2011-09-29 21:21:29
2904110 broslikethissite.com 4 372071 2011-09-29 21:21:38
2904111 sacotic.orangehost.info 0 No Rank 2011-09-29 21:21:39
2904112 brostar-cs.com 3 No Rank 2011-09-29 21:21:42
2904113 brotatolax.lockernerd.co.uk 0 1206309 2011-09-29 21:21:46
2904114 brotherhood-eddiejacobson.com 0 No Rank 2011-09-29 21:21:49
2904115 rbbf.org.uk 3 No Rank 2011-09-29 21:21:50
2904116 lia.at 3 5499402 2011-09-29 21:21:53
2904117 brotherstrimmlawncare.com 0 No Rank 2011-09-29 21:21:56
2904118 christianbehavior.wordpress.com 1 No Rank 2011-09-29 21:21:56
2904119 brothersenaccion.com 0 8426375 2011-09-29 21:22:06
2904120 brotherxl2600i.info 0 No Rank 2011-09-29 21:22:14
2904121 gothiccostumes.com 0 No Rank 2011-09-29 21:22:14
2904122 targa-photography.com 2 No Rank 2011-09-29 21:22:15
2904123 ruhul0.weebly.com 0 No Rank 2011-09-29 21:22:19
2904124 brow-threading.com 0 No Rank 2011-09-29 21:22:23
2904125 broughtycastlebc.com 1 No Rank 2011-09-29 21:22:24
2904126 browaedclerk.org 0 No Rank 2011-09-29 21:22:30
2904127 women.seonesa.wordpress.com 0 No Rank 2011-09-29 21:22:33
2904128 browardfencecontractor.com 2 No Rank 2011-09-29 21:22:34
2904129 brownandwhittaker.com 0 No Rank 2011-09-29 21:22:38
2904130 owk.mince.nl 0 1255340 2011-09-29 21:22:44
2904131 brownbonbon.com 2 22844842 2011-09-29 21:22:45
2904132 confessions-blog.com 4 No Rank 2011-09-29 21:22:49
2904133 old.med.kindalfire.com 0 No Rank 2011-09-29 21:22:51
2904134 brownbook.ae 5 1098571 2011-09-29 21:22:51
2904135 browncityumc.com 0 No Rank 2011-09-29 21:22:54
2904136 loys.de 2 5187895 2011-09-29 21:22:57
2904137 brownfineproperties.com 0 No Rank 2011-09-29 21:22:57
2904138 browninnovationsinc.com 0 23717357 2011-09-29 21:23:04
2904139 brownkushner.com 3 17745447 2011-09-29 21:23:12
2904140 browns2bozeman.com 0 No Rank 2011-09-29 21:23:18
2904141 justinbieberspainfans.org 4 582350 2011-09-29 21:23:21
2904142 browns-greenhouse.com 0 No Rank 2011-09-29 21:23:23
2904143 brownstonemanor.com 3 No Rank 2011-09-29 21:23:26
2904144 masummultimedia.webs.com 0 16509737 2011-09-29 21:23:29
2904145 brownsugarsubstitute.net 0 No Rank 2011-09-29 21:23:34
2904146 brownsugayouthfest.com 1 No Rank 2011-09-29 21:23:38
2904147 10-plus-2.net 0 No Rank 2011-09-29 21:23:41
2904148 browsergames.blog.com 0 1088 2011-09-29 21:23:44
2904149 brp.ucoz.es 0 821 2011-10-18 13:47:04
2904150 0577rf.com 0 No Rank 2011-09-29 21:23:50
2904151 1035pearl.net 0 No Rank 2011-09-29 21:23:51
2904152 browsersites.com 4 22796284 2011-09-29 21:23:52
2904153 burston.co.uk 1 6141387 2011-09-29 21:23:54
2904154 1104051105.se 3 No Rank 2011-09-29 21:23:55
2904155 1212studios.com 1 No Rank 2011-09-29 21:23:57
2904156 brshospitality.com 0 No Rank 2011-09-29 21:23:57
2904157 brsmove.com 2 No Rank 2011-09-29 21:24:00
2904158 12onthelake.com 3 No Rank 2011-09-29 21:24:01
2904159 13southcasa.com 2 No Rank 2011-09-29 21:24:02
2904160 ifp-ew.eu 4 No Rank 2011-09-29 21:24:03
2904161 brspto.org 2 No Rank 2011-09-29 21:24:06
2904162 mountaincreekengineering.com 0 No Rank 2011-09-29 21:24:07
2904163 1440wrok.com 4 6007347 2011-09-29 21:24:08
2904164 14henrietta.com 1 12419735 2011-09-29 21:24:09
2904165 brsyddanmark.dk 6 11784414 2011-09-29 21:24:10
2904166 clius.net 1 No Rank 2011-09-29 21:24:13
2904167 atlyss.com 1 3831419 2011-09-29 21:24:13
2904168 15000.biz 0 No Rank 2011-09-29 21:24:15
2904169 juwols.com 2 No Rank 2011-09-29 21:24:16
2904170 brucebud.myfirstblog.net 0 696355 2011-09-29 21:24:17
2904171 yellpy.com 0 No Rank 2011-09-29 21:24:20
2904172 citteriousa.com 2 11230089 2011-09-29 21:24:21
2904173 brucecraig1.topproducerwebsite.com 1 206517 2011-09-29 21:24:23
2904174 brucebrown.com 3 No Rank 2011-09-29 21:24:25
2904175 sumatrix.de 0 22317945 2011-09-29 21:24:29
2904176 brucefreedmanmd.com 2 No Rank 2011-09-29 21:24:30
2904177 wachturm.de 4 No Rank 2011-09-29 21:24:32
2904178 bruceedwardwalker.com 0 No Rank 2011-09-29 21:24:34
2904179 brucegroup.com 0 No Rank 2011-09-29 21:24:37
2904180 wood158.com 0 16090816 2011-09-29 21:24:38
2904181 bc.cc.ca.us 6 349663 2011-09-29 21:24:40
2904182 maps.seonesa.wordpress.com 0 No Rank 2011-09-29 21:24:44
2904183 shop.hdg.de 6 286699 2011-09-29 21:24:46
2904184 brucehoogendoorn.com 2 No Rank 2011-09-29 21:24:48
2904185 hot-deal.tv 3 No Rank 2011-09-29 21:24:51
2904186 multithemes.com 4 1431079 2011-09-29 21:24:56
2904187 ticlem.ago.vn 0 7054896 2011-09-29 21:25:04
2904188 bruceheritage.com 4 No Rank 2011-09-29 21:25:20
2904189 campang.com 0 No Rank 2011-09-29 21:25:25
2904190 bruceleadance.com 1 9406376 2011-09-29 21:25:26
2904191 brucemalyplumbing.com 1 No Rank 2011-09-29 21:25:35
2904192 ionaudio.de 4 2283421 2011-09-29 21:25:36
2904193 brucelindbloom.com 5 1262569 2011-09-29 21:25:38
2904194 navnav.co.uk 1 No Rank 2011-09-29 21:25:42
2904195 brucetemuchinbrown.com 3 No Rank 2011-09-29 21:25:44
2904196 clay4fun.com 0 5969331 2011-09-29 21:25:53
2904197 bruceruderman.com 0 23829391 2011-09-29 21:25:55
2904198 brucesburritos.com 2 7579618 2011-09-29 21:26:01
2904199 byrammassage.com 3 No Rank 2011-09-29 21:26:04
2904200 brugmanconsulting.com 0 No Rank 2011-09-29 21:26:08
2904201 brucewbuchanan.com 0 No Rank 2011-09-29 21:26:14
2904202 17500km.com 1 No Rank 2011-09-29 21:26:16
2904203 camphawc.com 2 No Rank 2011-09-29 21:26:18
2904204 19sd348.nl 1 No Rank 2011-09-29 21:26:21
2904205 jettyart.com 1 18705689 2011-09-29 21:26:25
2904206 1millondeclicscontralapobreza.org 3 No Rank 2011-09-29 21:26:26
2904207 brumleysresort.com 2 No Rank 2011-09-29 21:26:26
2904208 1sonllc.net 0 No Rank 2011-09-29 21:26:30
2904209 skinn.com.au 2 18752138 2011-09-29 21:26:31
2904210 1818it.com 0 No Rank 2011-09-29 21:26:32
2904211 1teambag.com 2 No Rank 2011-09-29 21:26:37
2904212 thisfave.com 0 10560295 2011-09-29 21:26:38
2904213 brumartglass.com 1 5887497 2011-09-29 21:26:39
2904214 2000aveofthestars.com 0 No Rank 2011-09-29 21:26:39
2904215 2002fordranger.com 0 No Rank 2011-09-29 21:26:41
2904216 228waccamawave.com 1 No Rank 2011-09-29 21:26:44
2904217 23-ds.com 0 No Rank 2011-09-29 21:26:44
2904218 bruneicarzine.com 2 1824522 2011-09-29 21:26:50
2904219 24-hour-emergency-locksmith-city.com 0 No Rank 2011-09-29 21:26:50
2904220 brunetteblogger.com 1 No Rank 2011-09-29 21:26:53
2904221 brockhaus.de 6 594719 2011-09-29 21:26:55
2904222 brunogorgone.com 2 16844874 2011-09-29 21:26:57
2904223 2525happy.com 2 No Rank 2011-09-29 21:26:58
2904224 24hsante.com 3 397241 2011-09-29 21:27:01
2904225 brunnen.ge 3 No Rank 2011-09-29 21:27:01
2904226 millesich.at 3 19720933 2011-09-29 21:27:02
2904227 home.zaidimai.net78.net 0 41989 2011-09-29 21:27:02
2904228 272main.com 0 18308764 2011-09-29 21:27:02
2904229 www2.zaidimai.net78.net 0 41989 2011-09-29 21:27:07
2904230 2flatline.com 2 6967454 2011-09-29 21:27:09
2904231 wachtturm.de 4 1295359 2011-09-29 21:27:10
2904232 2bsolutions.net 3 11044942 2011-09-29 21:27:12
2904233 2sme.com 0 21890552 2011-09-29 21:27:14
2904234 ppk.rave.org 3 55276 2011-09-29 21:27:17
2904235 2t3.org 1 No Rank 2011-09-29 21:27:18
2904236 bruscotoons.andromedafree.it 4 135527 2011-09-29 21:27:18
2904237 317carpetcleaning.com 0 No Rank 2011-09-29 21:27:21
2904238 301hotsauce.com 2 No Rank 2011-09-29 21:27:24
2904239 brushycreeklodge.com 2 No Rank 2011-09-29 21:27:24
2904240 321fletcherrd.com 0 No Rank 2011-09-29 21:27:27
2904241 video-call-usa.blogspot.com 0 No Rank 2011-09-29 21:27:29
2904242 brushncurlmchenry.com 0 No Rank 2011-09-29 21:27:30
2904243 335.st 2 No Rank 2011-09-29 21:27:30
2904244 3bureaureport.com 2 25899749 2011-09-29 21:27:32
2904245 brusselsbriefings.net 5 No Rank 2011-09-29 21:27:37
2904246 shop.allclearpools.com 1 7837037 2011-09-29 21:27:38
2904247 3mharp.com 1 No Rank 2011-09-29 21:27:39
2904248 tutoringmatch.com 3 1357333 2011-09-29 21:27:39
2904249 3d-uborka.ru 2 No Rank 2011-09-29 21:27:41
2904250 tomsk.gov.ru 6 3911 2011-09-29 21:27:41
2904251 3pcup.com 0 No Rank 2011-09-29 21:27:41
2904252 brutonstroube.com 2 2501240 2011-09-29 21:27:44
2904253 managein.net 5 9886042 2011-09-29 21:27:44
2904254 sunshine-exports.com 0 No Rank 2011-09-29 21:27:44
2904255 e-store1.net 0 No Rank 2011-09-29 21:27:46
2904256 3xdata.com 3 No Rank 2011-09-29 21:27:46
2904257 40mphgocartsinpigeonforge.com 1 No Rank 2011-09-29 21:27:47
2904258 dayi-archi.myweb.3n2.net 0 1646840 2011-09-29 21:27:49
2904259 4accreditedonlinecolleges.com 0 No Rank 2011-09-29 21:27:50
2904260 4455.ru 4 1981762 2011-09-29 21:27:52
2904261 bruttagente.com 0 No Rank 2011-09-29 21:27:54
2904262 bryancadams.com 0 No Rank 2011-09-29 21:27:59
2904263 4everchristina.myforum.ro 1 102492 2011-09-29 21:28:01
2904264 bryankemper.com 4 2640806 2011-09-29 21:28:07
2904265 jar.warc.com 5 48899 2011-09-29 21:28:08
2904266 4starcinemas.com 3 1864966 2011-09-29 21:28:11
2904267 4supplychainrecruitment.com 0 No Rank 2011-09-29 21:28:15
2904268 4studio.ru 2 1608457 2011-09-29 21:28:15
2904269 hurleypc.com 1 No Rank 2011-09-29 21:28:17
2904270 badhonblog.com 1 1128783 2011-09-29 21:28:21
2904271 bryanbrandenburg.blog.com 2 1088 2011-09-29 21:28:22
2904272 jmnetusa.com 5 994328 2011-09-29 21:28:24
2904273 56-immo.com 0 No Rank 2011-09-29 21:28:25
2904274 bryanmartens.com 0 No Rank 2011-09-29 21:28:26
2904275 616lofts.com 1 15111008 2011-09-29 21:28:34
2904276 bryanpravda.com 0 No Rank 2011-09-29 21:28:35
2904277 709online.net 0 No Rank 2011-09-29 21:28:37
2904278 zekihome.com 1 No Rank 2011-09-29 21:28:41
2904279 bryansbridalelegance.com 1 No Rank 2011-09-29 21:28:41
2904280 72-immo.com 0 No Rank 2011-09-29 21:28:42
2904281 punkfest.com 1 No Rank 2011-09-29 21:28:45
2904282 bryansymphony.org 3 No Rank 2011-09-29 21:28:50
2904283 729mixx.com 1 17541224 2011-09-29 21:28:51
2904284 lania.edu.mx 0 12061641 2011-09-29 21:28:51
2904285 bryantstrattonscrewedme.com 0 11540903 2011-09-29 21:28:54
2904286 jstryker.com 4 13905432 2011-09-29 21:28:58
2904287 73jp.net 0 No Rank 2011-09-29 21:28:59
2904288 certifybahamas.com 0 No Rank 2011-09-29 21:29:01
2904289 bryantavey.com 2 25238217 2011-09-29 21:29:02
2904290 7441123.ru 1 8006905 2011-09-29 21:29:05
2904291 zangfeest.be 2 No Rank 2011-09-29 21:29:08
2904292 brynstudio.com 0 No Rank 2011-09-29 21:29:08
2904293 brydgeandlee.com 1 No Rank 2011-09-29 21:29:13
2904294 7seasjordan.com 3 13960272 2011-09-29 21:29:15
2904295 boutchou.com 4 1728735 2011-09-29 21:29:16
2904296 hardinip.com 0 No Rank 2011-09-29 21:29:17
2904297 888tower.com 1 No Rank 2011-09-29 21:29:22
2904298 bryonyhillcattery.com 1 No Rank 2011-09-29 21:29:24
2904299 91we.com 0 563105 2011-09-29 21:29:25
2904300 topbau-vs.de 1 24384612 2011-09-29 21:29:25
2904301 965thenoize.net 2 11525599 2011-09-29 21:29:26
2904302 bs-maeda.com 1 No Rank 2011-09-29 21:29:27
2904303 979wvok.com 2 11485830 2011-09-29 21:29:30
2904304 neurowar.com 2 No Rank 2011-09-29 21:29:30
2904305 999thefoxrocks.com 3 No Rank 2011-09-29 21:29:33
2904306 bsa31.com 1 No Rank 2011-09-29 21:29:35
2904307 a1steamcleaninglasvegas.com 0 No Rank 2011-09-29 21:29:37
2904308 bsaironeyescody.weebly.com 0 No Rank 2011-09-29 21:29:38
2904309 a-nbayhouserentals.com 2 10861664 2011-09-29 21:29:40
2904310 aaarubbish.com 1 No Rank 2011-09-29 21:29:41
2904311 gwpharma.com 5 No Rank 2011-09-29 21:29:42
2904312 bsamotorcyclepart.com 0 No Rank 2011-09-29 21:29:43
2904313 aaola.org 4 No Rank 2011-09-29 21:29:44
2904314 forgreaterconsciousness.org 1 No Rank 2011-09-29 21:29:45
2904315 aagsclev.org 4 No Rank 2011-09-29 21:29:45
2904316 bsatroop11.org 0 No Rank 2011-09-29 21:29:48
2904317 anonymat.org 4 1287941 2011-09-29 21:29:48
2904318 aauwpa.org 4 No Rank 2011-09-29 21:29:49
2904319 abc-cuisine.com 3 9938232 2011-09-29 21:29:51
2904320 bsatroop392.org 1 No Rank 2011-09-29 21:29:52
2904321 abc-playgrounds.com 0 No Rank 2011-09-29 21:29:56
2904322 istl-usa.net 0 No Rank 2011-09-29 21:29:56
2904323 abc-studio.net 3 No Rank 2011-09-29 21:29:59
2904324 bsilipigno.myfirstblog.net 0 696355 2011-09-29 21:30:06
2904325 abcharter.net 1 No Rank 2011-09-29 21:30:07
2904326 hengancq.com 0 No Rank 2011-09-29 21:30:08
2904327 netechno.com 2 4088282 2011-09-29 21:30:08
2904328 raleighlaboragency.com 0 No Rank 2011-09-29 21:30:08
2904329 gouweleeuwmetaal.nl 1 No Rank 2011-09-29 21:30:09
2904330 totalvisionproducts.com 2 9663763 2011-09-29 21:30:09
2904331 abdgroupinc.com 0 No Rank 2011-09-29 21:30:11
2904332 abeltraifi.net 0 9917973 2011-09-29 21:30:12
2904333 bsek.webs.com 0 No Rank 2011-09-29 21:30:15
2904334 icoachkc.com 0 No Rank 2011-09-29 21:30:17
2904335 geiswood.com 0 No Rank 2011-09-29 21:30:18
2904336 bscia-bsba.org.uk 3 No Rank 2011-09-29 21:30:21
2904337 fr34all.info 0 7687852 2011-09-29 21:30:24
2904338 abnescio.name 0 No Rank 2011-09-29 21:30:27
2904339 bscka.org 0 No Rank 2011-09-29 21:30:28
2904340 abilityfoundation.org 4 2118597 2011-09-29 21:30:30
2904341 abortionsurgerycenter.com 2 16722937 2011-09-29 21:30:34
2904342 bskybrand.com 2 13652092 2011-09-29 21:30:34
2904343 about-cars.com 2 3094010 2011-09-29 21:30:35
2904344 aboutheaters.com 0 No Rank 2011-09-29 21:30:37
2904345 news.iran.ru 2 189798 2011-09-29 21:30:39
2904346 aboutnevadacity.com 2 28027024 2011-09-29 21:30:40
2904347 absheron.clan.su 0 183 2011-09-29 21:30:45
2904348 bsksbd.org 0 No Rank 2011-09-29 21:30:45
2904349 absurdradio.com 2 No Rank 2011-09-29 21:30:46
2904350 ac-motor.eu 0 No Rank 2011-09-29 21:30:50
2904351 riceghg.info 0 No Rank 2011-09-29 21:30:52
2904352 bsl.nu 1 No Rank 2011-09-29 21:30:53
2904353 abvistrobert.com 2 21432922 2011-09-29 21:30:55
2904354 mmo-love.info 0 No Rank 2011-09-29 21:30:58
2904355 academy.kiev.ua 5 3933527 2011-09-29 21:30:58
2904356 bsmart.se 3 5471549 2011-09-29 21:31:00
2904357 academyelite.org 2 No Rank 2011-09-29 21:31:03
2904358 spamfocus.com 0 No Rank 2011-09-29 21:31:05
2904359 melrosewi.org 1 No Rank 2011-09-29 21:31:09
2904360 acbsd.com 1 No Rank 2011-09-29 21:31:09
2904361 bsm-waco.org 2 No Rank 2011-09-29 21:31:10
2904362 accesschinese.com 3 2851608 2011-09-29 21:31:10
2904363 accounting-jobs-in-cayman.ky 1 No Rank 2011-09-29 21:31:14
2904364 accuratetaxpc.com 0 No Rank 2011-09-29 21:31:15
2904365 malodorousmesses.com 2 22673247 2011-09-29 21:31:15
2904366 bsmartbuilders.com 2 11335376 2011-09-29 21:31:16
2904367 m.packers.com 3 19668 2011-09-29 21:31:17
2904368 acenta.com 3 3110211 2011-09-29 21:31:20
2904369 bsmcflorida.com 2 22553212 2011-09-29 21:31:24
2904370 aclinebuildupremover.com 0 No Rank 2011-09-29 21:31:24
2904371 achangeisafoot.com 1 No Rank 2011-09-29 21:31:26
2904372 acmcom.com 2 No Rank 2011-09-29 21:31:27
2904373 bsmodellers.com 0 No Rank 2011-09-29 21:31:28
2904374 acproducts.com 0 No Rank 2011-09-29 21:31:29
2904375 jdq.sh.gov.cn 6 12953 2011-09-29 21:31:33
2904376 acrotechperformance.com 0 No Rank 2011-09-29 21:31:33
2904377 actschapter18.org 0 No Rank 2011-09-29 21:31:35
2904378 adamnalerdds.com 0 15173653 2011-09-29 21:31:42
2904379 addgiftbaskets.com 0 No Rank 2011-09-29 21:31:46
2904380 adbase.ru 2 1549395 2011-09-29 21:31:46
2904381 addictedtofitness.com 2 23705242 2011-09-29 21:31:49
2904382 addictedtowalls.com 1 No Rank 2011-09-29 21:31:50
2904383 addictionmobile.com 0 No Rank 2011-09-29 21:31:53
2904384 adelaidebreastsurgery.com 0 No Rank 2011-09-29 21:31:55
2904385 adeusaveiro.org 0 No Rank 2011-09-29 21:31:59
2904386 compub.com 3 1006155 2011-09-29 21:32:00
2904387 wreckedfun.insanejournal.com 0 5015 2011-09-29 21:32:01
2904388 adigital.co.il 3 24567115 2011-09-29 21:32:02
2904389 liangchen518.blog.sohu.com 0 44 2011-09-29 21:32:02
2904390 adminsyf.com 0 No Rank 2011-09-29 21:32:10
2904391 adp-micromegas.fr 4 No Rank 2011-09-29 21:32:12
2904392 adsconst.com 1 No Rank 2011-09-29 21:32:20
2904393 smsmatrix.com 3 514651 2011-09-29 21:32:21
2904394 bsnlbroadband.net.in 0 5648379 2011-09-29 21:32:24
2904395 adultmedya.net 0 10072244 2011-09-29 21:32:24
2904396 blastmeup.wordpress.com 0 No Rank 2011-09-29 21:32:25
2904397 adultmaleacne.net 0 No Rank 2011-09-29 21:32:25
2904398 bout-chou.com 4 1728735 2011-09-29 21:32:27
2904399 adultrey.info 0 No Rank 2011-09-29 21:32:28
2904400 bsmou.org 0 9541607 2011-09-29 21:32:28
2904401 advancedfertilitycenter.org 1 No Rank 2011-09-29 21:32:30
2904402 bsnldirectory.co.in 2 4103594 2011-09-29 21:32:33
2904403 advancedhealthsales.com 0 No Rank 2011-09-29 21:32:34
2904404 advancedveintreatment.com 0 No Rank 2011-09-29 21:32:37
2904405 advancedheatingsolutions.com 0 23864382 2011-09-29 21:32:38
2904406 advancedwomen.com 0 No Rank 2011-09-29 21:32:41
2904407 bsny.org 1 23073782 2011-09-29 21:32:41
2904408 intbranch.org 4 No Rank 2011-09-29 21:32:43
2904409 advantageptwellness.com 1 No Rank 2011-09-29 21:32:43
2904410 stannsveteransday.com 0 No Rank 2011-09-29 21:32:43
2904411 advent-press.com 3 23705567 2011-09-29 21:32:45
2904412 bsnlportal.org.in 0 12119004 2011-09-29 21:32:48
2904413 adventureofsuperspice.com 1 10254872 2011-09-29 21:32:49
2904414 sp7dcs.vgj.pl 2 No Rank 2011-09-29 21:32:52
2904415 bspratt.byethost10.com 0 75819 2011-09-29 21:32:54
2904416 advokatrjukan.no 2 No Rank 2011-09-29 21:32:57
2904417 adwill.be 2 No Rank 2011-09-29 21:33:00
2904418 kevinpeno.com 3 12326849 2011-09-29 21:33:00
2904419 edtech.uwlax.edu 0 172288 2011-09-29 21:33:02
2904420 aerocarpiquet.com 0 14823109 2011-09-29 21:33:03
2904421 freshcoffeefundraising.com 0 No Rank 2011-09-29 21:33:10
2904422 aeroconsort.nl 1 No Rank 2011-09-29 21:33:11
2904423 bsshosting.com 0 No Rank 2011-09-29 21:33:12
2904424 more4dorset.com 0 No Rank 2011-09-29 21:33:12
2904425 advocations.org 0 No Rank 2011-09-29 21:33:13
2904426 epicultra.com 0 No Rank 2011-09-29 21:33:16
2904427 theworldtechnologys.blogspot.com 0 20850688 2011-09-29 21:33:17
2904428 owealife.bravejournal.com 0 13382 2011-09-29 21:33:19
2904429 aerophotoengineering.com 0 No Rank 2011-09-29 21:33:20
2904430 bssmpr.com 0 No Rank 2011-09-29 21:33:20
2904431 aerogrit.com 1 No Rank 2011-09-29 21:33:21
2904432 affiliateprogramscams.com 0 9555005 2011-09-29 21:33:27
2904433 treadmillbargains4u.com 1 26663866 2011-09-29 21:33:29
2904434 gopplatform2008.com 4 3390974 2011-09-29 21:33:29
2904435 africainfrastructure.org 2 25132531 2011-09-29 21:33:31
2904436 bsteknology.com 2 7779588 2011-09-29 21:33:31
2904437 pennymeal.com 2 No Rank 2011-09-29 21:33:31
2904438 afrance.net 2 No Rank 2011-09-29 21:33:31
2904439 africalifting.co.za 0 No Rank 2011-09-29 21:33:32
2904440 ale.gratka.pl 5 4366 2011-09-29 21:33:36
2904441 afripro.org 4 No Rank 2011-09-29 21:33:37
2904442 bstockum.com 1 No Rank 2011-09-29 21:33:37
2904443 7-hovenroute.nl 0 No Rank 2011-09-29 21:33:38
2904444 caeel.cjb.net 0 16656 2011-09-29 21:33:39
2904445 calsoccer.net 1 No Rank 2011-09-29 21:33:40
2904446 afwholesaler.org 0 No Rank 2011-09-29 21:33:43
2904447 ag-maenner.de 1 20448796 2011-09-29 21:33:43
2904448 jamjamandjam.sosblogs.com 0 12485 2011-09-29 21:33:46
2904449 agence-pernot.com 1 No Rank 2011-09-29 21:33:48
2904450 bt.kiev.ua 4 168817 2011-09-29 21:33:48
2904451 agentsignin.com 0 No Rank 2011-09-29 21:33:50
2904452 agileflow.net 0 16012168 2011-09-29 21:33:52
2904453 u.seonesa.wordpress.com 0 No Rank 2011-09-29 21:33:55
2904454 afscmenj.com 4 23488412 2011-09-29 21:33:55
2904455 dematexpo.com 5 11876447 2011-09-29 21:33:56
2904456 btakumbakonam.com 0 5607776 2011-09-29 21:33:58
2904457 agromakielce.pl 3 2443062 2011-09-29 21:33:58
2904458 btafirearms.com 0 19467151 2011-09-29 21:33:59
2904459 ahmedabdelhamid.com 2 6977983 2011-09-29 21:34:02
2904460 ai-miyazato54.info 0 No Rank 2011-09-29 21:34:03
2904461 infragroup.bg 3 No Rank 2011-09-29 21:34:03
2904462 btastat.com 3 23586657 2011-09-29 21:34:03
2904463 ai-para.com 2 3164076 2011-09-29 21:34:08
2904464 aiaauto.com 2 14670180 2011-09-29 21:34:09
2904465 golfshows.net 0 No Rank 2011-09-29 21:34:11
2904466 btauctions.com 2 No Rank 2011-09-29 21:34:11
2904467 aidtech.com 1 No Rank 2011-09-29 21:34:16
2904468 aikenbesthomes.com 0 No Rank 2011-09-29 21:34:17
2904469 btforeverlovers.freepowerboards.com 0 184249 2011-09-29 21:34:17
2904470 imbalance2.wpshower.com 4 9164 2011-09-29 21:34:21
2904471 orthopedia.gr 2 3220530 2011-09-29 21:34:21
2904472 aikidosubotica.com 0 5724714 2011-09-29 21:34:22
2904473 btfarming.com 0 No Rank 2011-09-29 21:34:22
2904474 aikijutsu.info 1 No Rank 2011-09-29 21:34:22
2904475 ainsleyphotography.com 2 No Rank 2011-09-29 21:34:26
2904476 btkphoto.com 1 21996927 2011-09-29 21:34:27
2904477 agrireseau.qc.ca 6 677806 2011-09-29 21:34:29
2904478 airbow.nl 0 No Rank 2011-09-29 21:34:32
2904479 btkd.co.uk 3 3242905 2011-09-29 21:34:34
2904480 geoffkeddy.com 2 No Rank 2011-09-29 21:34:36
2904481 aircompressorsavings.com 1 4979366 2011-09-29 21:34:36
2904482 airaanz.eventsmart.co.nz 2 20747663 2011-09-29 21:34:38
2904483 paintingsgalore.com 1 3578462 2011-09-29 21:34:38
2904484 canopymeg.com 5 6518013 2011-09-29 21:34:39
2904485 airclub.lv 2 No Rank 2011-09-29 21:34:40
2904486 btlcritiques.com 3 23952279 2011-09-29 21:34:41
2904487 airguns.ru 2 No Rank 2011-09-29 21:34:42
2904488 airplenum.com 3 No Rank 2011-09-29 21:34:43
2904489 leadsland.com 0 No Rank 2011-09-29 21:34:45
2904490 airpro-game.com 3 3552700 2011-09-29 21:34:46
2904491 nhacviet.kindalfire.com 0 No Rank 2011-09-29 21:34:48
2904492 btoringing.blogspot.com 4 15886627 2011-09-29 21:34:49
2904493 elvira-bg.com 0 No Rank 2011-09-29 21:34:50
2904494 ajo-media.com 2 21893386 2011-09-29 21:34:51
2904495 ajscompany.ru 4 9626798 2011-09-29 21:34:52
2904496 btphoneshop.co.uk 0 No Rank 2011-09-29 21:34:56
2904497 akkadianpv.com 1 No Rank 2011-09-29 21:34:56
2904498 btpowerhouse.com 4 4872948 2011-09-29 21:35:02
2904499 akrf.com 5 8907931 2011-09-29 21:35:02
2904500 akpfirm.com 3 No Rank 2011-09-29 21:35:05
2904501 missionrealestatelink.com 0 No Rank 2011-09-29 21:35:08
2904502 btvt.narod.ru 4 245 2011-09-29 21:35:09
2904503 akrotex.com 2 No Rank 2011-09-29 21:35:09
2904504 akta.com 2 24171757 2011-09-29 21:35:10
2904505 shopping.dallasnews.com 6 5872 2011-09-29 21:35:10
2904506 muabantuyendung.vn 0 28153725 2011-09-29 21:35:11
2904507 atbchurch.com 0 No Rank 2011-09-29 21:35:11
2904508 aktien-kurse.ch.vu 0 No Rank 2011-09-29 21:35:15
2904509 akuna.euweb.cz 2 121047 2011-09-29 21:35:15
2904510 bubble-shooter.seriesgames.net 0 1488193 2011-09-29 21:35:16
2904511 akropolgroup.ru 2 10580659 2011-09-29 21:35:17
2904512 bubble.seriesgames.net 0 1488193 2011-09-29 21:35:19
2904513 al-3rsan.com 0 1181628 2011-09-29 21:35:19
2904514 tontastic.com 2 28031472 2011-09-29 21:35:19
2904515 al-tef.com 0 2914421 2011-09-29 21:35:20
2904516 al-manar-television.lebanontvs.tel 0 28205977 2011-09-29 21:35:21
2904517 elautillo.com 3 17925892 2011-09-29 21:35:21
2904518 alabama-magazine.com 3 4103286 2011-09-29 21:35:26
2904519 bubblebalancer.com 0 No Rank 2011-09-29 21:35:26
2904520 alabamainjuryattorneyblog.com 3 6946416 2011-09-29 21:35:27
2904521 alan-lawson.com 1 No Rank 2011-09-29 21:35:31
2904522 alagr.com 3 9908722 2011-09-29 21:35:31
2904523 audentic.ag 0 3974813 2011-09-29 21:35:32
2904524 bubble2boardroom.com 2 8055570 2011-09-29 21:35:36
2904525 alarmsflorida.net 0 No Rank 2011-09-29 21:35:36
2904526 alarmsystemspalmbeach.com 0 No Rank 2011-09-29 21:35:37
2904527 alarisaero.com 1 12464569 2011-09-29 21:35:38
2904528 hdrcgb.org.uk 3 5116111 2011-09-29 21:35:39
2904529 alaska.boards.travelnurse.tel 1 13029889 2011-09-29 21:35:41
2904530 alawda.info 3 1121274 2011-09-29 21:35:42
2904531 magicbeancafe.com 3 No Rank 2011-09-29 21:35:42
2904532 bubblegumbellydance.com 1 14940245 2011-09-29 21:35:44
2904533 ctfmidwillamettevalley.org 2 No Rank 2011-09-29 21:35:44
2904534 alboushragroup.com 0 No Rank 2011-09-29 21:35:45
2904535 bubblenewstrends.blogspot.com 3 7157162 2011-09-29 21:35:46
2904536 ticketelf.com 0 23800915 2011-09-29 21:35:47
2904537 albertaluge.com 3 No Rank 2011-09-29 21:35:49
2904538 aleaguild.com 0 No Rank 2011-09-29 21:35:49
2904539 bubblesonalki.com 3 5265543 2011-09-29 21:35:53
2904540 sabercats.org 0 23423007 2011-09-29 21:35:54
2904541 jamjamandjam.livejournal.com 0 88 2011-09-29 21:35:54
2904542 51seconds.com 1 9919878 2011-09-29 21:35:55
2904543 alertcomputing.com 3 5902319 2011-09-29 21:35:55
2904544 bubbles.seriesgames.net 0 1488193 2011-09-29 21:35:59
2904545 alelazienka.pl 2 4868475 2011-09-29 21:36:00
2904546 alexiahopf.com 0 No Rank 2011-09-29 21:36:00
2904547 balticmaps.eu 5 488816 2011-09-29 21:36:04
2904548 real-science.com 0 378162 2011-09-29 21:36:06
2904549 alexthewriter.com 0 No Rank 2011-09-29 21:36:07
2904550 alexology.org 0 No Rank 2011-09-29 21:36:09
2904551 healthywv.com 3 23045185 2011-09-29 21:36:12
2904552 alexander-eckert.com 3 No Rank 2011-09-29 21:36:12
2904553 algirdashotel.lt 6 6494198 2011-09-29 21:36:14
2904554 buben-info.narod.ru 3 245 2011-09-29 21:36:15
2904555 algregri.com 2 No Rank 2011-09-29 21:36:16
2904556 bubbletastic.co.uk 0 No Rank 2011-09-29 21:36:17
2904557 pacholder.com 2 No Rank 2011-09-29 21:36:19
2904558 ali-baba.pl 3 10417144 2011-09-29 21:36:21
2904559 alibabaguide.com 0 4993615 2011-09-29 21:36:22
2904560 bubcap.com 4 5311479 2011-09-29 21:36:22
2904561 dizdarevic.ba 0 No Rank 2011-09-29 21:36:24
2904562 alifa1.com 0 No Rank 2011-09-29 21:36:30
2904563 alicudi.me 3 4152855 2011-09-29 21:36:30
2904564 alientodevida.org 0 No Rank 2011-09-29 21:36:30
2904565 alignedcae.com 2 No Rank 2011-09-29 21:36:35
2904566 bucaramanga.vivavisos.com 3 48380 2011-09-29 21:36:41
2904567 aliramazani.com 3 8069712 2011-09-29 21:36:41
2904568 usavtoweb.com 3 2122402 2011-09-29 21:36:41
2904569 alijamal.com 0 15668940 2011-09-29 21:36:42
2904570 alisondubois.com 0 No Rank 2011-09-29 21:36:45
2904571 alkhaleejmanila.com 0 No Rank 2011-09-29 21:36:46
2904572 ccfernley.com 2 No Rank 2011-09-29 21:36:46
2904573 all-jewelry-designers.com 2 2516787 2011-09-29 21:36:46
2904574 s2kisgood.over-blog.com 0 354 2011-09-29 21:36:48
2904575 bucatariaadrianei.ro 3 4691068 2011-09-29 21:36:49
2904576 bucatarii.md 0 No Rank 2011-09-29 21:36:49
2904577 policehomepage.com 1 7934562 2011-09-29 21:36:49
2904578 allaboutjumping.org 0 No Rank 2011-09-29 21:36:51
2904579 caviarinc.com 2 No Rank 2011-09-29 21:36:51
2904580 allamericanlandscaping.com 1 23489075 2011-09-29 21:36:52
2904581 buchabill.com 0 No Rank 2011-09-29 21:36:53
2904582 all-sound.nl 2 No Rank 2011-09-29 21:36:55
2904583 hard-easy.com 0 No Rank 2011-09-29 21:36:55
2904584 alleedesign.com 1 No Rank 2011-09-29 21:36:58
2904585 allenjohnson.com 1 19617546 2011-09-29 21:36:58
2904586 buchanansmith.com 4 No Rank 2011-09-29 21:36:59
2904587 writeup.co.jp 5 88127 2011-09-29 21:37:00
2904588 allenrefrigeration.com 0 No Rank 2011-09-29 21:37:01
2904589 allisonalexander.tv 1 7833349 2011-09-29 21:37:03
2904590 buchbergbiker.12see.de 0 234361 2011-09-29 21:37:03
2904591 skysearch.com 1 18762732 2011-09-29 21:37:06
2904592 allservicerents.com 0 No Rank 2011-09-29 21:37:10
2904593 powertonsue.posterous.com 0 No Rank 2011-09-29 21:37:13
2904594 allwin.nu 3 No Rank 2011-09-29 21:37:14
2904595 buckalewpto.info 0 22737048 2011-09-29 21:37:14
2904596 buchhalter-sandmann.de 1 19467156 2011-09-29 21:37:15
2904597 allyouknead.com 1 No Rank 2011-09-29 21:37:17
2904598 almego.lv 2 No Rank 2011-09-29 21:37:18
2904599 tmcalvary.org 2 No Rank 2011-09-29 21:37:18
2904600 aloeguaranaenergydrink.com 0 1114490 2011-09-29 21:37:21
2904601 alnoroil.com 2 17439143 2011-09-29 21:37:23
2904602 buckey.us 3 25232453 2011-09-29 21:37:24
2904603 alonearea.com 1 3957135 2011-09-29 21:37:27
2904604 cpaway.com 4 23993 2011-09-29 21:37:28
2904605 iannounce.net 6 1437781 2011-09-29 21:37:28
2904606 buckeye.lunarbreeze.com 0 17596 2011-09-29 21:37:28
2904607 alopeciaboy.net 0 No Rank 2011-09-29 21:37:29
2904608 alpharettarelocate.com 0 18696527 2011-09-29 21:37:33
2904609 lambsfarm.com 4 3147544 2011-09-29 21:37:33
2904610 buckhornrubber.com 2 7341609 2011-09-29 21:37:34
2904611 alphakimori.com 2 13142645 2011-09-29 21:37:39
2904612 the-blanc.com 0 No Rank 2011-09-29 21:37:39
2904613 alpifantasy.com 0 No Rank 2011-09-29 21:37:40
2904614 hungjohns512.imagekind.com 0 16983 2011-09-29 21:37:42
2904615 buckeyeschicken.com 1 10670487 2011-09-29 21:37:43
2904616 datenight.org 0 No Rank 2011-09-29 21:37:44
2904617 alqadisiyahcars.com 0 No Rank 2011-09-29 21:37:45
2904618 buckeyeaviation.com 3 22181287 2011-09-29 21:37:51
2904619 birdworld.com 0 No Rank 2011-09-29 21:37:54
2904620 bucksmobility.com 1 25118980 2011-09-29 21:37:57
2904621 buckstaffbathhouse.com 3 6734835 2011-09-29 21:38:01
2904622 birdworld.org 0 No Rank 2011-09-29 21:38:02
2904623 forexsanitation.com 0 No Rank 2011-09-29 21:38:03
2904624 mfeddersen.de 0 No Rank 2011-09-29 21:38:08
2904625 buckley.editme.com 1 22626 2011-09-29 21:38:11
2904626 beautymart.in 1 1912830 2011-09-29 21:38:17
2904627 buckys5thquarter.com 5 900270 2011-09-29 21:38:18
2904628 bbs.kindalfire.com 0 No Rank 2011-09-29 21:38:23
2904629 solidsoundfestival.com 5 2916914 2011-09-29 21:38:26
2904630 bucurie.net 3 4446005 2011-09-29 21:38:26
2904631 chnzuji.com 0 No Rank 2011-09-29 21:38:26
2904632 pascovets.com 2 No Rank 2011-09-29 21:38:29
2904633 online-ptc.info 0 14417380 2011-09-29 21:38:37
2904634 budacast.com 4 11237152 2011-09-29 21:38:43
2904635 fotoeditors.com 2 8432946 2011-09-29 21:38:43
2904636 tsrigging.com 0 No Rank 2011-09-29 21:38:46
2904637 buddhabag.org 1 11138347 2011-09-29 21:38:46
2904638 gwpharm.co.uk 5 No Rank 2011-09-29 21:38:50
2904639 buddbash.com 0 No Rank 2011-09-29 21:38:54
2904640 aimplace.info 0 No Rank 2011-09-29 21:38:56
2904641 buddhawege.de 3 24289352 2011-09-29 21:38:58
2904642 unbehagen.com 4 21389455 2011-09-29 21:39:08
2904643 pic.gwafi.com 1 35586 2011-09-29 21:39:17
2904644 budds-place.com 0 No Rank 2011-09-29 21:39:21
2904645 buddhabynight.com 1 No Rank 2011-09-29 21:39:21
2904646 alsaffarstudios.com 0 No Rank 2011-09-29 21:39:21
2904647 alshankleconstruction.com 2 No Rank 2011-09-29 21:39:23
2904648 alsmesquitegrill.com 2 11481191 2011-09-29 21:39:24
2904649 wapmaster.wen.ru 1 16640 2011-09-29 21:39:25
2904650 pls.lib.ok.us 0 117136 2011-09-29 21:39:27
2904651 buddingtastes.co.uk 0 No Rank 2011-09-29 21:39:28
2904652 webaspect.com.ua 1 13229956 2011-09-29 21:39:29
2904653 alterego-avocats.com 2 No Rank 2011-09-29 21:39:32
2904654 chesterton.ae 5 No Rank 2011-09-29 21:39:32
2904655 buddinghealth.net 1 18724170 2011-09-29 21:39:34
2904656 alternativa.firstreality.cz 2 12240320 2011-09-29 21:39:37
2904657 kelo-cote.com 3 1551130 2011-09-29 21:39:38
2904658 buddythedj.com 0 No Rank 2011-09-29 21:39:41
2904659 alutend.hr 3 1792216 2011-09-29 21:39:42
2904660 pinicijo.cwahi.net 0 57341 2011-09-29 21:39:43
2904661 ccfernley.org 2 No Rank 2011-09-29 21:39:46
2904662 altamebel.ru 0 1488768 2011-09-29 21:39:47
2904663 alwaysbeshipping.co 3 89877 2011-09-29 21:39:48
2904664 buddthebuilder.com 1 20550186 2011-09-29 21:39:49
2904665 dopipoju.cwahi.net 0 57341 2011-09-29 21:39:50
2904666 am-financialmortgage.com 1 15666952 2011-09-29 21:39:52
2904667 budget-accommodation.com 0 No Rank 2011-09-29 21:39:56
2904668 kids1.yam.com 6 1031 2011-09-29 21:39:56
2904669 budgetbedswales.0fees.net 0 11683 2011-09-29 21:40:04
2904670 onlineshoesfactory.com 0 11642790 2011-09-29 21:40:04
2904671 amakaya.co.za 2 6925807 2011-09-29 21:40:06
2904672 am-fm.com 0 No Rank 2011-09-29 21:40:07
2904673 amarjaestate.com 1 6192048 2011-09-29 21:40:10
2904674 amarillohelicoptercharters.com 0 No Rank 2011-09-29 21:40:11
2904675 timeturk.com 5 26026 2011-09-29 21:40:14
2904676 budgetbuilders.weebly.com 0 No Rank 2011-09-29 21:40:15
2904677 ambayhosting.com 0 No Rank 2011-09-29 21:40:16
2904678 amberforeveramber.com 2 No Rank 2011-09-29 21:40:18
2904679 budgetblogger.com 0 11612559 2011-09-29 21:40:21
2904680 ameliaearhart75thanniversary.com 1 No Rank 2011-09-29 21:40:22
2904681 budgetcityshuttle.com 1 No Rank 2011-09-29 21:40:24
2904682 americanalliedrecycling.com 2 23865810 2011-09-29 21:40:24
2904683 ems.sdcoe.net 3 304235 2011-09-29 21:40:26
2904684 deathtofalsehoperecords.com 2 1179324 2011-09-29 21:40:28
2904685 americanhomeheating.com 2 No Rank 2011-09-29 21:40:29
2904686 uptimemac.com 1 No Rank 2011-09-29 21:40:30
2904687 americanpatientsunited.org 3 16228558 2011-09-29 21:40:36
2904688 americanplasticlumber.net 3 No Rank 2011-09-29 21:40:38
2904689 americantitleco.biz 3 No Rank 2011-09-29 21:40:39
2904690 budsinternetmarket.com 0 19888585 2011-09-29 21:40:40
2904691 americanvintagefurniture.com 2 23865874 2011-09-29 21:40:42
2904692 ppzfamily.com 1 No Rank 2011-09-29 21:40:43
2904693 budsgoldmine.com 0 No Rank 2011-09-29 21:40:46
2904694 budtheblogger.blogspot.com 3 No Rank 2011-09-29 21:40:47
2904695 americasmostwantedmetalroof.com 0 No Rank 2011-09-29 21:40:48
2904696 budslistbuilding.com 0 No Rank 2011-09-29 21:40:51
2904697 data.grip.org 6 2628934 2011-09-29 21:40:52
2904698 americraft1.com 2 3908176 2011-09-29 21:40:52
2904699 ameritrakdetectiveagency.com 0 No Rank 2011-09-29 21:40:55
2904700 americrawlsouth.com 3 8326417 2011-09-29 21:40:56
2904701 buduj-biznes-online.pl 1 8631192 2011-09-29 21:41:01
2904702 amiromar.com 2 19438656 2011-09-29 21:41:02
2904703 amessagefromgod.org 0 8301945 2011-09-29 21:41:03
2904704 profigames.de 3 15215725 2011-09-29 21:41:09
2904705 amitroneoherron.com 0 No Rank 2011-09-29 21:41:13
2904706 amlands.com 0 No Rank 2011-09-29 21:41:18
2904707 amruthanursing.org 0 No Rank 2011-09-29 21:41:22
2904708 buenojoe.com 1 1190602 2011-09-29 21:41:22
2904709 amstelgolgrace.nl 0 No Rank 2011-09-29 21:41:24
2904710 cerebus.co.za 1 6584263 2011-09-29 21:41:25
2904711 budyguns.com 0 No Rank 2011-09-29 21:41:25
2904712 bigreadok.com 4 No Rank 2011-09-29 21:41:27
2904713 amtouringthecars.nl 1 No Rank 2011-09-29 21:41:28
2904714 mignonne.com 3 106030 2011-09-29 21:41:30
2904715 amwassociates.com 0 No Rank 2011-09-29 21:41:32
2904716 justlanded.ru 5 1577284 2011-09-29 21:41:33
2904717 buenosgrill.webs.com 1 No Rank 2011-09-29 21:41:36
2904718 pe123.5d6d.com 0 1060 2011-09-29 21:41:39
2904719 anagrama.com.mx 0 4229170 2011-09-29 21:41:40
2904720 anarchyeyewear.com 4 1998211 2011-09-29 21:41:43
2904721 myharakah.net 4 1562438 2011-09-29 21:41:46
2904722 andbar.info 0 No Rank 2011-09-29 21:41:50
2904723 buffalobayoushuttleservice.org 0 No Rank 2011-09-29 21:41:50
2904724 andero.com 0 No Rank 2011-09-29 21:41:54
2904725 bugaderiatintoreria.com 0 No Rank 2011-09-29 21:41:55
2904726 kaboost.co.uk 0 3912659 2011-09-29 21:41:56
2904727 abmashtab.com 0 No Rank 2011-09-29 21:41:58
2904728 andkjaerolsen.dk 1 No Rank 2011-09-29 21:42:00
2904729 buggraphics.co.uk 0 No Rank 2011-09-29 21:42:02
2904730 skincancertreatmentmethods.blogspot.com 0 No Rank 2011-09-29 21:42:07
2904731 andreafodraszatkozmetika.hu 1 24841864 2011-09-29 21:42:08
2904732 kobeplaza.com 4 4140772 2011-09-29 21:42:12
2904733 bughumnoi.com 1 14943068 2011-09-29 21:42:13
2904734 andreafultonproductions.com 2 22850495 2011-09-29 21:42:13
2904735 andreougiorgos.com 0 No Rank 2011-09-29 21:42:17
2904736 andouar.eu 3 No Rank 2011-09-29 21:42:20
2904737 yimshouse.com 0 25343378 2011-09-29 21:42:21
2904738 buglovesbooks-usborne.com 0 No Rank 2011-09-29 21:42:26
2904739 andrewsbooks.ca 1 No Rank 2011-09-29 21:42:26
2904740 andyeverson.com 4 2902099 2011-09-29 21:42:28
2904741 andyscuptennis.com 0 No Rank 2011-09-29 21:42:30
2904742 wap.gpcic.org 3 1918043 2011-09-29 21:42:30
2904743 bugkart.com 0 No Rank 2011-09-29 21:42:32
2904744 legoharrypotterhogwarts.net 0 No Rank 2011-09-29 21:42:35
2904745 andysquire.net 2 No Rank 2011-09-29 21:42:35
2904746 anecdotof.net 0 10686256 2011-09-29 21:42:36
2904747 bugistattoo.com 1 24547304 2011-09-29 21:42:37
2904748 angelundbootverhey.de 0 No Rank 2011-09-29 21:42:41
2904749 anguish-bladefist.com 0 No Rank 2011-09-29 21:42:44
2904750 carsnparts.ie 2 2487094 2011-09-29 21:42:47
2904751 anguswong.net 3 No Rank 2011-09-29 21:42:47
2904752 anitamercy.com 0 No Rank 2011-09-29 21:42:49
2904753 ctrlgames.com 3 1784992 2011-09-29 21:42:50
2904754 bugsaikayaks.com 0 No Rank 2011-09-29 21:42:52
2904755 anitazvonar.com 3 22213945 2011-09-29 21:42:54
2904756 ankehaug.de 1 15230046 2011-09-29 21:42:56
2904757 annaeklundtarantino.com 0 No Rank 2011-09-29 21:42:59
2904758 annamirska-perry.com.pl 0 No Rank 2011-09-29 21:43:01
2904759 annandalenursery.com 0 No Rank 2011-09-29 21:43:03
2904760 annandleo.com 0 No Rank 2011-09-29 21:43:09
2904761 everfunbox.blogspot.com 0 No Rank 2011-09-29 21:43:10
2904762 annapurna.biz 2 No Rank 2011-09-29 21:43:11
2904763 stillight.com 0 No Rank 2011-09-29 21:43:12
2904764 annofarrell.net 3 No Rank 2011-09-29 21:43:17
2904765 buhrn.blog.com 0 1088 2011-09-29 21:43:17
2904766 secuforum.com 3 No Rank 2011-09-29 21:43:19
2904767 ansade.com 4 No Rank 2011-09-29 21:43:20
2904768 antalyailoz.gov.tr 4 10756619 2011-09-29 21:43:22
2904769 buigiatrang.com 0 15185781 2011-09-29 21:43:22
2904770 anthony-robertson.com 1 No Rank 2011-09-29 21:43:23
2904771 anthonypagani.com 0 No Rank 2011-09-29 21:43:25
2904772 antigo.cm-cinfaes.pt 1 2352549 2011-09-29 21:43:27
2904773 build-a-casket.com 0 No Rank 2011-09-29 21:43:31
2904774 antillesradiotv.net 2 12324730 2011-09-29 21:43:32
2904775 antiquascom.it 3 No Rank 2011-09-29 21:43:33
2904776 tickets.drv.de 3 204860 2011-09-29 21:43:34
2904777 antique-decoration.com 1 12148855 2011-09-29 21:43:38
2904778 mikehorban.com 0 No Rank 2011-09-29 21:43:38
2904779 antiqueaircraftradios.com 2 No Rank 2011-09-29 21:43:38
2904780 okhave.com 0 16230378 2011-09-29 21:43:40
2904781 anygarden.com 2 No Rank 2011-09-29 21:43:42
2904782 buildersinmadurai.com 0 10154207 2011-09-29 21:43:42
2904783 door-curtain-panels.dealshopcenter.com 0 No Rank 2011-09-29 21:43:44
2904784 antochova-calounictvi.wz.cz 3 12537 2011-09-29 21:43:44
2904785 aoc-invictus.com 0 No Rank 2011-09-29 21:43:47
2904786 beneschlaw.com 5 2230543 2011-09-29 21:43:48
2904787 buildersinindia.net 0 No Rank 2011-09-29 21:43:48
2904788 cosmolalia.com 4 18464224 2011-09-29 21:43:51
2904789 apartmani-antunovic.net 0 No Rank 2011-09-29 21:43:52
2904790 building-a-web-site.com 2 1088207 2011-09-29 21:43:55
2904791 juergenkopf.de 2 No Rank 2011-09-29 21:43:59
2904792 apartmani-vidovic.vodice.com.hr 0 20736047 2011-09-29 21:43:59
2904793 buildfloridasdecs.blogspot.com 0 No Rank 2011-09-29 21:44:01
2904794 apartmenthomesrent.com 2 2165653 2011-09-29 21:44:03
2904795 apfelstrudel-koenig.at 0 No Rank 2011-09-29 21:44:08
2904796 pennymeals.com 2 16527871 2011-09-29 21:44:10
2904797 building-design.com 3 No Rank 2011-09-29 21:44:10
2904798 alleseks.nl 0 No Rank 2011-09-29 21:44:12
2904799 apl.com.pl 0 No Rank 2011-09-29 21:44:12
2904800 apnsteel.com 0 5283293 2011-09-29 21:44:13
2904801 building-muscle-guide.com 2 493366 2011-09-29 21:44:15
2904802 appaloosa-pub.ch 2 12647076 2011-09-29 21:44:19
2904803 appdlab.com 0 No Rank 2011-09-29 21:44:21
2904804 applebeesatlanta.com 2 9504779 2011-09-29 21:44:22
2904805 diabanktmc.com 4 No Rank 2011-09-29 21:44:23
2904806 applecards.net 0 No Rank 2011-09-29 21:44:26
2904807 vampirered.com 1 No Rank 2011-09-29 21:44:29
2904808 appletreeacademy.net 0 No Rank 2011-09-29 21:44:31
2904809 appliancesplusvideo.com 3 8784625 2011-09-29 21:44:32
2904810 appliedbehavioranalysis.com 2 9793381 2011-09-29 21:44:35
2904811 umfrage.drv.de 0 204860 2011-09-29 21:44:36
2904812 building-plot.org.uk 3 755180 2011-09-29 21:44:37
2904813 aprilfoolsdaywedding.com 0 No Rank 2011-09-29 21:44:39
2904814 applinggrays.org 2 25448633 2011-09-29 21:44:39
2904815 apsinteriors.com 0 No Rank 2011-09-29 21:44:42
2904816 biocorneum.com 2 15109036 2011-09-29 21:44:43
2904817 building-supply.dk 5 1023370 2011-09-29 21:44:43
2904818 buildingconceptsremodeling.com 3 No Rank 2011-09-29 21:44:44
2904819 apuc-scot-contractmanage.org 3 No Rank 2011-09-29 21:44:45
2904820 facefitnessreview.org 0 No Rank 2011-09-29 21:44:46
2904821 navimanager.de 3 No Rank 2011-09-29 21:44:47
2904822 apteki.tomaszowmazowiecki.firmy-24h.pl 0 3546707 2011-09-29 21:44:49
2904823 aqps.info 6 5096884 2011-09-29 21:44:52
2904824 buildingdoctors.in 0 7322346 2011-09-29 21:44:53
2904825 bestbuyheadphone.com 0 1512265 2011-09-29 21:44:55
2904826 aqs500replacementfilters.com 0 No Rank 2011-09-29 21:44:56
2904827 aquaoeste.com 2 20687184 2011-09-29 21:44:58
2904828 aquilesdellevigne.net 3 14920722 2011-09-29 21:45:00
2904829 buildinggroundlandscape.com 1 No Rank 2011-09-29 21:45:01
2904830 ibarakikai.com 4 No Rank 2011-09-29 21:45:03
2904831 arab-economy.com 0 No Rank 2011-09-29 21:45:03
2904832 ara.com.mx 5 587828 2011-09-29 21:45:04
2904833 buildingefficiencystudio.com 0 No Rank 2011-09-29 21:45:08
2904834 archdiocese.ca 4 5506939 2011-09-29 21:45:08
2904835 javanonline.ir 5 47466 2011-09-29 21:45:08
2904836 arcadiacomp.com 0 No Rank 2011-09-29 21:45:10
2904837 buildingremodelingtampa.com 1 No Rank 2011-09-29 21:45:11
2904838 architectsinbangalore.org 0 7330412 2011-09-29 21:45:13
2904839 javandaily.net 6 No Rank 2011-09-29 21:45:14
2904840 arcticcatmichigan.com 0 No Rank 2011-09-29 21:45:16
2904841 buildingserviceofnewsmyrna.com 0 No Rank 2011-09-29 21:45:16
2904842 alibabsurf.com 2 2576675 2011-09-29 21:45:19
2904843 buildingrepaircorp.com 0 No Rank 2011-09-29 21:45:21
2904844 ardencastle.com 0 No Rank 2011-09-29 21:45:23
2904845 ardian-fanpage.de.vu 0 No Rank 2011-09-29 21:45:25
2904846 ardyandeds.com 3 18591488 2011-09-29 21:45:26
2904847 arelia.net 1 No Rank 2011-09-29 21:45:36
2904848 arequipaperu.org 1 16568246 2011-09-29 21:45:38
2904849 argekimya.com.tr 0 No Rank 2011-09-29 21:45:40
2904850 buildministries.info 0 1772376 2011-09-29 21:45:41
2904851 edv-branche.de 4 6972776 2011-09-29 21:45:41
2904852 argillos.net 0 No Rank 2011-09-29 21:45:45
2904853 argenradio.com.ar 0 20058187 2011-09-29 21:45:46
2904854 buildphilly.com 0 No Rank 2011-09-29 21:45:47
2904855 test--pure.com 0 No Rank 2011-09-29 21:45:47
2904856 argosys-automation.com 0 No Rank 2011-09-29 21:45:50
2904857 tencymusic.com 0 No Rank 2011-09-29 21:45:51
2904858 buildtheinternets.com 0 No Rank 2011-09-29 21:45:51
2904859 argo-rest.ru 1 No Rank 2011-09-29 21:45:55
2904860 alphakyoto.com 4 1465116 2011-09-29 21:45:58
2904861 buildyouridealteam.com 2 No Rank 2011-09-29 21:45:58
2904862 arizonastonegallery.com 1 No Rank 2011-09-29 21:45:59
2904863 johnpavval.com 0 No Rank 2011-09-29 21:46:05
2904864 buildtradegroup.com 2 19680429 2011-09-29 21:46:08
2904865 convergenw.org 2 No Rank 2011-09-29 21:46:08
2904866 arjana.com 0 No Rank 2011-09-29 21:46:09
2904867 builtdishwasher.com 0 No Rank 2011-09-29 21:46:11
2904868 fanghualian.com.cn 1 16606397 2011-09-29 21:46:14
2904869 aringaroundthecollar.com 2 No Rank 2011-09-29 21:46:15
2904870 selfsupport.gr 0 No Rank 2011-09-29 21:46:17
2904871 arktis-servis.cz 3 12993676 2011-09-29 21:46:22
2904872 laindustria.pe 4 211243 2011-09-29 21:46:23
2904873 buin.ru 2 No Rank 2011-09-29 21:46:25
2904874 armadaagency.com 2 7996668 2011-09-29 21:46:29
2904875 arlette.write2me.nl 0 268404 2011-09-29 21:46:30
2904876 bighelpers.org 1 432278 2011-09-29 21:46:31
2904877 builttuffkennels.webs.com 0 No Rank 2011-09-29 21:46:32
2904878 armmortgage.com 2 No Rank 2011-09-29 21:46:34
2904879 arniston-letting.co.za 2 7231462 2011-09-29 21:46:36
2904880 bujagood.com 1 No Rank 2011-09-29 21:46:39
2904881 arodweb.com 3 7189620 2011-09-29 21:46:40
2904882 blog.netcent.cn 0 8757556 2011-09-29 21:46:41
2904883 arktika.org 4 22019276 2011-09-29 21:46:43
2904884 arpacn.com 2 No Rank 2011-09-29 21:46:49
2904885 card.keb.co.kr 5 35892 2011-09-29 21:46:52
2904886 aroundtownmagazine.com 4 8122630 2011-09-29 21:46:54
2904887 arpeggiomusic.net 1 26349301 2011-09-29 21:46:54
2904888 arrowauto.ca 3 No Rank 2011-09-29 21:46:54
2904889 yyostefi.hi2.ro 0 73447 2011-09-29 21:46:56
2904890 arrowmac.com 4 2998673 2011-09-29 21:46:58
2904891 straffekast.dk 1 No Rank 2011-09-29 21:47:00
2904892 arslimited.com 3 No Rank 2011-09-29 21:47:00
2904893 arsem.pl 2 20045077 2011-09-29 21:47:02
2904894 bukidnononline.com 3 1020947 2011-09-29 21:47:10
2904895 bukaddy.com 1 No Rank 2011-09-29 21:47:15
2904896 bukit-jegeg.com 3 No Rank 2011-09-29 21:47:17
2904897 art-boi.com 1 No Rank 2011-09-29 21:47:20
2904898 artaffectsbydeano.com 1 16704926 2011-09-29 21:47:21
2904899 nursingschoolsinmiami.com 0 No Rank 2011-09-29 21:47:24
2904900 artbyangeli.com 1 No Rank 2011-09-29 21:47:25
2904901 bulgaria-car-hire.com 0 No Rank 2011-09-29 21:47:27
2904902 artdentallab.com 1 19342334 2011-09-29 21:47:27
2904903 m.laziofly.com 4 322341 2011-09-29 21:47:28
2904904 women.audentic.ag 0 3974813 2011-09-29 21:47:32
2904905 articulture.nl 1 No Rank 2011-09-29 21:47:33
2904906 artecasapanama.com 0 No Rank 2011-09-29 21:47:34
2904907 artisaverb.info 1 14966029 2011-09-29 21:47:41
2904908 olivetoast.com 0 1407285 2011-09-29 21:47:43
2904909 bulauto-sofia.com 1 No Rank 2011-09-29 21:47:44
2904910 artisland.ru 2 12384297 2011-09-29 21:47:45
2904911 elainequinn.com 1 988163 2011-09-29 21:47:49
2904912 hipolizings.lv 6 10235604 2011-09-29 21:47:54
2904913 bulgariatouristinformation.com 0 No Rank 2011-09-29 21:47:54
2904914 artroskopi2011.org 0 No Rank 2011-09-29 21:47:55
2904915 zaidimai.net78.net 0 41989 2011-09-29 21:47:55
2904916 arteriamagz.tk 2 No Rank 2011-09-29 21:47:56
2904917 web3.xfj.pl 0 No Rank 2011-09-29 21:47:59
2904918 artsizzles.com 3 25601121 2011-09-29 21:47:59
2904919 bulgarya.co.cc 2 No Rank 2011-09-29 21:48:00
2904920 artthrobtattoos.com 0 No Rank 2011-09-29 21:48:07
2904921 artisan-interiors.com 0 14881833 2011-09-29 21:48:10
2904922 artyliz.com 0 22522387 2011-09-29 21:48:10
2904923 bulldavlinbulldogs.webs.com 0 No Rank 2011-09-29 21:48:12
2904924 thinknet.co.th 4 3005439 2011-09-29 21:48:13
2904925 arudhe.com 0 No Rank 2011-09-29 21:48:13
2904926 arvelin.fi 0 23228221 2011-09-29 21:48:15
2904927 ascottsdalecpa.com 1 No Rank 2011-09-29 21:48:17
2904928 bull-r-vanessa.narod.ru 1 245 2011-09-29 21:48:18
2904929 ashevillescottishrite.org 2 14404279 2011-09-29 21:48:18
2904930 seca-group.com 1 19432678 2011-09-29 21:48:21
2904931 bullerbesen.12see.de 0 234361 2011-09-29 21:48:22
2904932 ashi-k.com 0 No Rank 2011-09-29 21:48:23
2904933 asiandjsnow.com 1 No Rank 2011-09-29 21:48:26
2904934 bulldol.com 1 No Rank 2011-09-29 21:48:29
2904935 askhoustonlawyer.com 0 No Rank 2011-09-29 21:48:31
2904936 visaliainc.com 3 14866529 2011-09-29 21:48:31
2904937 bulletproofmaterial.net 0 No Rank 2011-09-29 21:48:33
2904938 asliceofcake.uw.hu 2 22364 2011-09-29 21:48:33
2904939 amsterdamse-poort.nl 0 No Rank 2011-09-29 21:48:34
2904940 maps.audentic.ag 0 3974813 2011-09-29 21:48:37
2904941 mrvc.audentic.ag 0 3974813 2011-09-29 21:48:37
2904942 asm-resurs.ru 1 No Rank 2011-09-29 21:48:37
2904943 asmanpower.com 0 9896683 2011-09-29 21:48:38
2904944 asphelpdesk.com 3 No Rank 2011-09-29 21:48:42
2904945 assn.ca 2 No Rank 2011-09-29 21:48:45
2904946 asphaltcontractortacoma.net 0 No Rank 2011-09-29 21:48:46
2904947 associationpartnersinc.com 1 15990033 2011-09-29 21:48:48
2904948 bulletsnbroadheads.com 2 No Rank 2011-09-29 21:48:49
2904949 whitedogs.cjb.net 0 16656 2011-09-29 21:48:50
2904950 asteria-performance.com 1 No Rank 2011-09-29 21:48:51
2904951 astorcpa.com 0 No Rank 2011-09-29 21:48:53
2904952 essencefit.com 0 16330845 2011-09-29 21:48:54
2904953 piratedownload.usersboard.com 0 513349 2011-09-29 21:48:55
2904954 astoria-sushi.ru 2 16889413 2011-09-29 21:48:57
2904955 haltech.com.au 4 1084245 2011-09-29 21:48:57
2904956 astralprojectionguide.net 0 6017019 2011-09-29 21:48:59
2904957 astranex.com 0 No Rank 2011-09-29 21:48:59
2904958 astrologersindelhi.com 0 No Rank 2011-09-29 21:49:02
2904959 astromedical.com 3 No Rank 2011-09-29 21:49:02
2904960 astroshot.com 3 No Rank 2011-09-29 21:49:07
2904961 bulletresistantglass.org 0 No Rank 2011-09-29 21:49:07
2904962 asv-sauerlandia.de.vu 2 No Rank 2011-09-29 21:49:09
2904963 ataltitude.com 0 No Rank 2011-09-29 21:49:09
2904964 cardprinter.ro 2 15748350 2011-09-29 21:49:10
2904965 bullfeathersautosound.com 2 15772295 2011-09-29 21:49:11
2904966 ateamexpress.co.za 0 No Rank 2011-09-29 21:49:12
2904967 medicine20.com 4 11824705 2011-09-29 21:49:13
2904968 atelier-duotang.com 4 693979 2011-09-29 21:49:14
2904969 athleticinstructor.com 0 No Rank 2011-09-29 21:49:17
2904970 atevco.com 0 No Rank 2011-09-29 21:49:17
2904971 scionofirvine.com 1 No Rank 2011-09-29 21:49:18
2904972 bullmarketrealty.net 2 No Rank 2011-09-29 21:49:20
2904973 glenfinart.com 0 No Rank 2011-09-29 21:49:21
2904974 athletics.wz.cz 0 12537 2011-09-29 21:49:21
2904975 aticd.com 0 No Rank 2011-09-29 21:49:22
2904976 atkinsconstructioncorp.com 0 13828119 2011-09-29 21:49:26
2904977 atlantaautoleasing.com 0 18637653 2011-09-29 21:49:27
2904978 atlantic-vacances.com 2 7690963 2011-09-29 21:49:29
2904979 ww12.jeffco.us 0 368386 2011-09-29 21:49:30
2904980 atlascleaninglosangeles.com 1 10589118 2011-09-29 21:49:32
2904981 atlaswaste.com 0 No Rank 2011-09-29 21:49:33
2904982 atlwest.com 2 15334455 2011-09-29 21:49:34
2904983 atmospherecasting.net 0 No Rank 2011-09-29 21:49:38
2904984 m.cinemagia.ro 2 10499 2011-09-29 21:49:39
2904985 odl.itsligo.ie 6 560487 2011-09-29 21:49:39
2904986 atmospolres.com 5 5242495 2011-09-29 21:49:40
2904987 ats-utc.ru 0 No Rank 2011-09-29 21:49:41
2904988 buzzyphoto.com 2 No Rank 2011-09-29 21:49:43
2904989 atsambulance.com 2 No Rank 2011-09-29 21:49:44
2904990 atspeed.org 1 No Rank 2011-09-29 21:49:44
2904991 hennypenny.net 4 No Rank 2011-09-29 21:49:46
2904992 audioonyx.com 3 24700556 2011-09-29 21:49:48
2904993 audiovisionswp.com 0 No Rank 2011-09-29 21:49:50
2904994 audreymclaren.com 3 No Rank 2011-09-29 21:49:51
2904995 auke.write2me.nl 0 268404 2011-09-29 21:49:55
2904996 aulonapainting.com 2 No Rank 2011-09-29 21:49:55
2904997 aundogs.com 0 No Rank 2011-09-29 21:49:58
2904998 auscorp.net 2 No Rank 2011-09-29 21:50:02
2904999 aura-chicago.com 0 8296657 2011-09-29 21:50:02